Time,TemperatureF,DewpointF,PressureIn,WindDirection,WindDirectionDegrees,WindSpeedMPH,WindSpeedGustMPH,Humidity,HourlyPrecipIn,Conditions,Clouds,dailyrainin,SoftwareType,DateUTC
2013-12-08 00:22:00,36.0,28.0,30.01,ESE,102,0.0,-999.0,72,-99.99,,,-99.99,,2013-12-08 08:22:00,
2013-12-08 00:42:00,36.0,28.0,30.00,ESE,102,0.0,-999.0,73,-99.99,,,-99.99,,2013-12-08 08:42:00,
2013-12-08 00:52:00,35.0,28.0,30.00,ESE,102,0.0,-999.0,74,-99.99,,,-99.99,,2013-12-08 08:52:00,
2013-12-08 01:21:00,35.0,28.0,30.01,ESE,102,0.0,-999.0,76,-99.99,,,-99.99,,2013-12-08 09:21:00,
2013-12-08 01:43:00,34.0,27.0,30.01,ESE,102,0.0,-999.0,75,-99.99,,,-99.99,,2013-12-08 09:43:00,
2013-12-08 01:53:00,34.0,27.0,30.01,ESE,102,0.0,-999.0,74,-99.99,,,-99.99,,2013-12-08 09:53:00,
2013-12-08 02:23:00,35.0,27.0,30.01,ESE,102,0.0,-999.0,73,-99.99,,,-99.99,,2013-12-08 10:23:00,
2013-12-08 02:43:00,34.0,26.0,30.03,ESE,102,0.0,-999.0,73,-99.99,,,-99.99,,2013-12-08 10:43:00,
2013-12-08 02:53:00,34.0,26.0,30.01,ESE,102,0.0,-999.0,73,-99.99,,,-99.99,,2013-12-08 10:53:00,
2013-12-08 03:22:00,35.0,26.0,30.01,ESE,103,0.0,-999.0,70,-99.99,,,-99.99,,2013-12-08 11:22:00,
2013-12-08 03:42:00,35.0,27.0,30.03,ESE,103,0.0,-999.0,71,-99.99,,,-99.99,,2013-12-08 11:42:00,
2013-12-08 03:52:00,35.0,27.0,30.03,ESE,103,0.0,-999.0,72,-99.99,,,-99.99,,2013-12-08 11:52:00,
2013-12-08 04:22:00,34.0,26.0,30.01,ESE,103,0.0,-999.0,72,-99.99,,,-99.99,,2013-12-08 12:22:00,
2013-12-08 04:42:00,34.0,26.0,30.01,ESE,103,0.0,-999.0,72,-99.99,,,-99.99,,2013-12-08 12:42:00,
2013-12-08 04:52:00,34.0,26.0,30.01,ESE,103,0.0,-999.0,73,-99.99,,,-99.99,,2013-12-08 12:52:00,
2013-12-08 05:21:00,33.0,25.0,30.01,ESE,103,0.0,-999.0,73,-99.99,,,-99.99,,2013-12-08 13:21:00,
2013-12-08 05:52:00,34.0,26.0,30.02,ESE,121,0.0,-999.0,72,-99.99,,,-99.99,,2013-12-08 13:52:00,
2013-12-08 06:22:00,33.0,25.0,30.03,ESE,121,0.0,-999.0,72,-99.99,,,-99.99,,2013-12-08 14:22:00,
2013-12-08 06:42:00,33.0,25.0,30.03,ESE,121,0.0,-999.0,71,-99.99,,,-99.99,,2013-12-08 14:42:00,
2013-12-08 06:52:00,33.0,25.0,30.04,ESE,121,0.0,-999.0,71,-99.99,,,-99.99,,2013-12-08 14:52:00,
2013-12-08 07:21:00,33.0,25.0,30.05,ESE,121,0.0,-999.0,73,-99.99,,,-99.99,,2013-12-08 15:21:00,
2013-12-08 07:54:00,33.0,25.0,30.05,ESE,121,0.0,-999.0,73,-99.99,,,-99.99,,2013-12-08 15:54:00,
2013-12-08 08:23:00,35.0,27.0,30.06,ESE,121,0.0,-999.0,72,-99.99,,,-99.99,,2013-12-08 16:23:00,
2013-12-08 08:43:00,36.0,28.0,30.06,ESE,121,0.0,-999.0,71,-99.99,,,-99.99,,2013-12-08 16:43:00,
2013-12-08 08:53:00,38.0,27.0,30.06,ESE,121,0.0,-999.0,63,-99.99,,,-99.99,,2013-12-08 16:53:00,
2013-12-08 09:12:00,40.0,26.0,30.08,ESE,121,0.0,-999.0,57,-99.99,,,-99.99,,2013-12-08 17:12:00,
2013-12-08 09:22:00,43.0,26.0,30.08,ESE,120,0.0,-999.0,51,-99.99,,,-99.99,,2013-12-08 17:22:00,
2013-12-08 09:42:00,44.0,27.0,30.08,ESE,120,0.0,-999.0,51,-99.99,,,-99.99,,2013-12-08 17:42:00,
2013-12-08 09:52:00,45.0,26.0,30.09,ESE,114,0.0,-999.0,47,-99.99,,,-99.99,,2013-12-08 17:52:00,
2013-12-08 10:21:00,47.0,25.0,30.08,ESE,111,0.0,-999.0,42,-99.99,,,-99.99,,2013-12-08 18:21:00,
2013-12-08 10:42:00,47.0,26.0,30.08,SE,135,0.0,-999.0,43,-99.99,,,-99.99,,2013-12-08 18:42:00,
2013-12-08 10:52:00,47.0,26.0,30.06,SE,132,0.0,-999.0,44,-99.99,,,-99.99,,2013-12-08 18:52:00,
2013-12-08 11:22:00,48.0,27.0,30.06,ESE,123,0.0,-999.0,43,-99.99,,,-99.99,,2013-12-08 19:22:00,
2013-12-08 11:42:00,49.0,27.0,30.05,ESE,123,0.0,-999.0,42,-99.99,,,-99.99,,2013-12-08 19:42:00,
2013-12-08 11:52:00,50.0,27.0,30.05,ESE,115,0.0,-999.0,41,-99.99,,,-99.99,,2013-12-08 19:52:00,
2013-12-08 12:11:00,51.0,28.0,30.03,ESE,115,0.0,-999.0,40,-99.99,,,-99.99,,2013-12-08 20:11:00,
2013-12-08 12:21:00,54.0,28.0,30.02,NW,305,0.0,-999.0,36,-99.99,,,-99.99,,2013-12-08 20:21:00,
2013-12-08 12:42:00,56.0,27.0,30.01,NW,308,0.0,-999.0,32,-99.99,,,-99.99,,2013-12-08 20:42:00,
2013-12-08 12:52:00,57.0,25.0,30.01,NNW,342,0.0,-999.0,29,-99.99,,,-99.99,,2013-12-08 20:52:00,
2013-12-08 13:22:00,57.0,28.0,29.99,NE,43,0.0,-999.0,33,-99.99,,,-99.99,,2013-12-08 21:22:00,
2013-12-08 13:53:00,58.0,30.0,29.98,North,355,0.0,-999.0,34,-99.99,,,-99.99,,2013-12-08 21:53:00,
2013-12-08 14:23:00,58.0,30.0,29.98,NE,36,0.0,-999.0,34,-99.99,,,-99.99,,2013-12-08 22:23:00,
2013-12-08 14:43:00,57.0,29.0,29.98,East,80,0.0,-999.0,34,-99.99,,,-99.99,,2013-12-08 22:43:00,
2013-12-08 14:53:00,57.0,31.0,29.98,East,80,0.0,-999.0,37,-99.99,,,-99.99,,2013-12-08 22:53:00,
2013-12-08 15:22:00,56.0,29.0,29.98,ENE,57,0.0,-999.0,35,-99.99,,,-99.99,,2013-12-08 23:22:00,
2013-12-08 15:42:00,55.0,30.0,29.98,NE,55,0.0,-999.0,38,-99.99,,,-99.99,,2013-12-08 23:42:00,
2013-12-08 15:52:00,55.0,29.0,29.98,NE,55,0.0,-999.0,37,-99.99,,,-99.99,,2013-12-08 23:52:00,
2013-12-08 16:11:00,54.0,31.0,29.98,NE,55,0.0,-999.0,42,-99.99,,,-99.99,,2013-12-09 00:11:00,
2013-12-08 16:21:00,53.0,32.0,29.98,NE,55,0.0,-999.0,44,-99.99,,,-99.99,,2013-12-09 00:21:00,
2013-12-08 16:42:00,52.0,32.0,29.98,NE,55,0.0,-999.0,47,-99.99,,,-99.99,,2013-12-09 00:42:00,
2013-12-08 16:52:00,50.0,32.0,29.98,NE,55,0.0,-999.0,49,-99.99,,,-99.99,,2013-12-09 00:52:00,
2013-12-08 17:21:00,47.0,33.0,29.99,NE,55,0.0,-999.0,57,-99.99,,,-99.99,,2013-12-09 01:21:00,
2013-12-08 17:42:00,46.0,33.0,30.00,NE,55,0.0,-999.0,60,-99.99,,,-99.99,,2013-12-09 01:42:00,
2013-12-08 17:52:00,45.0,32.0,30.01,NE,55,0.0,-999.0,61,-99.99,,,-99.99,,2013-12-09 01:52:00,
2013-12-08 18:21:00,44.0,31.0,30.01,NE,55,0.0,-999.0,60,-99.99,,,-99.99,,2013-12-09 02:21:00,
2013-12-08 18:42:00,43.0,28.0,30.01,NE,55,0.0,-999.0,56,-99.99,,,-99.99,,2013-12-09 02:42:00,
2013-12-08 18:53:00,42.0,27.0,30.01,NE,55,0.0,-999.0,54,-99.99,,,-99.99,,2013-12-09 02:53:00,
2013-12-08 19:22:00,42.0,26.0,30.02,NE,55,0.0,-999.0,53,-99.99,,,-99.99,,2013-12-09 03:22:00,
2013-12-08 19:43:00,42.0,24.0,30.02,NE,55,0.0,-999.0,49,-99.99,,,-99.99,,2013-12-09 03:43:00,
2013-12-08 19:53:00,42.0,24.0,30.02,NE,55,0.0,-999.0,49,-99.99,,,-99.99,,2013-12-09 03:53:00,
2013-12-08 20:13:00,42.0,25.0,30.03,NE,55,0.0,-999.0,50,-99.99,,,-99.99,,2013-12-09 04:13:00,
2013-12-08 20:22:00,42.0,25.0,30.03,NE,55,0.0,-999.0,50,-99.99,,,-99.99,,2013-12-09 04:22:00,
2013-12-08 20:52:00,42.0,23.0,30.05,ENE,63,0.0,-999.0,46,-99.99,,,-99.99,,2013-12-09 04:52:00,
2013-12-08 21:23:00,43.0,22.0,30.05,ENE,59,0.0,-999.0,43,-99.99,,,-99.99,,2013-12-09 05:23:00,
2013-12-08 21:42:00,43.0,22.0,30.06,ENE,59,0.0,-999.0,42,-99.99,,,-99.99,,2013-12-09 05:42:00,
2013-12-08 21:52:00,43.0,21.0,30.07,NE,51,0.0,-999.0,41,-99.99,,,-99.99,,2013-12-09 05:52:00,
2013-12-08 22:21:00,43.0,20.0,30.09,NE,52,0.0,-999.0,39,-99.99,,,-99.99,,2013-12-09 06:21:00,
2013-12-08 22:52:00,43.0,20.0,30.10,ESE,112,0.0,-999.0,39,-99.99,,,-99.99,,2013-12-09 06:52:00,
2013-12-08 23:22:00,42.0,21.0,30.11,SSE,153,0.0,-999.0,42,-99.99,,,-99.99,,2013-12-09 07:22:00,
2013-12-08 23:42:00,41.0,22.0,30.11,SSE,153,0.0,-999.0,46,-99.99,,,-99.99,,2013-12-09 07:42:00,
2013-12-08 23:52:00,40.0,22.0,30.11,SSE,153,0.0,-999.0,49,-99.99,,,-99.99,,2013-12-09 07:52:00,